When you browse on this site, cookies collect data to enhance your experience and personalize the content and advertising you see.
Visit our Privacy Policy to learn more. By continuing to use the site, you agree to this use of cookies and data.
  • In Czech Republic
  • List of Countries
  • For 7 days
  • Water Temperature
  • Satellite Maps
  • Weather Map
  • Weather Widgets
  • user-avatar
    Login

    Hourly Weather Orsha

    Today, 19 January, Saturday

    Time Temperature Precipitation Wind Pressure Humidity
    00:00 -12°C° 0 mm 4 mps 740 mmHg 92%
    01:00 -12°C° 0 mm 4 mps 740 mmHg 93%
    02:00 -12°C° 0 mm 4 mps 741 mmHg 93%
    03:00 -12°C° 0 mm 4 mps 741 mmHg 94%
    04:00 -11°C° 0 mm 4 mps 741 mmHg 94%
    05:00 -12°C° 0 mm 5 mps 741 mmHg 95%
    06:00 -12°C° 0 mm 5 mps 742 mmHg 94%
    07:00 -12°C° 0 mm 5 mps 742 mmHg 94%
    08:00 -11°C° 0 mm 5 mps 742 mmHg 93%
    09:00 -10°C° 0 mm 5 mps 742 mmHg 93%
    10:00 -10°C° 0 mm 5 mps 743 mmHg 92%
    11:00 -9°C° 0 mm 6 mps 743 mmHg 92%
    12:00 -8°C° 0 mm 6 mps 744 mmHg 90%
    13:00 -7°C° 0 mm 5 mps 744 mmHg 89%
    14:00 -6°C° 0 mm 5 mps 744 mmHg 88%
    15:00 -6°C° 0 mm 5 mps 744 mmHg 89%
    16:00 -5°C° 0 mm 4 mps 745 mmHg 89%
    17:00 -5°C° 0 mm 4 mps 745 mmHg 90%
    18:00 -7°C° 0 mm 4 mps 745 mmHg 91%
    19:00 -8°C° 0 mm 4 mps 745 mmHg 92%
    20:00 -9°C° 0 mm 4 mps 746 mmHg 93%
    21:00 -9°C° 0 mm 4 mps 746 mmHg 93%
    22:00 -10°C° 0 mm 4 mps 746 mmHg 94%
    23:00 -10°C° 0 mm 4 mps 746 mmHg 95%

    Tomorrow, 20 January, Sunday

    Time Temperature Precipitation Wind Pressure Humidity
    00:00 -10°C° 0 mm 4 mps 746 mmHg 95%
    01:00 -11°C° 0 mm 5 mps 746 mmHg 94%
    02:00 -11°C° 0 mm 5 mps 746 mmHg 94%
    03:00 -11°C° 0 mm 5 mps 746 mmHg 94%
    04:00 -11°C° 0 mm 5 mps 745 mmHg 93%
    05:00 -10°C° 0 mm 6 mps 745 mmHg 93%
    06:00 -9°C° 0 mm 6 mps 744 mmHg 92%
    07:00 -9°C° 0 mm 6 mps 744 mmHg 91%
    08:00 -8°C° 0 mm 7 mps 744 mmHg 89%
    09:00 -8°C° 0 mm 7 mps 744 mmHg 89%
    10:00 -8°C° 0 mm 7 mps 744 mmHg 89%
    11:00 -8°C° 0 mm 7 mps 744 mmHg 89%
    12:00 -7°C° 0 mm 7 mps 743 mmHg 89%
    13:00 -7°C° 0 mm 7 mps 743 mmHg 89%
    14:00 -7°C° 0 mm 7 mps 743 mmHg 89%
    15:00 -7°C° 0.1 mm 7 mps 743 mmHg 90%
    16:00 -8°C° 0.1 mm 7 mps 743 mmHg 91%
    17:00 -8°C° 0.1 mm 6 mps 743 mmHg 91%
    18:00 -7°C° 0.1 mm 5 mps 743 mmHg 92%
    19:00 -7°C° 0.1 mm 5 mps 743 mmHg 93%
    20:00 -7°C° 0.1 mm 4 mps 743 mmHg 94%
    21:00 -6°C° 0.3 mm 3 mps 743 mmHg 94%
    22:00 -6°C° 0.3 mm 3 mps 743 mmHg 95%
    23:00 -6°C° 0.3 mm 2 mps 743 mmHg 95%

    Day after tomorrow, 21 January, Monday

    Time Temperature Precipitation Wind Pressure Humidity
    00:00 -7°C° 0.1 mm 2 mps 743 mmHg 94%
    01:00 -10°C° 0.1 mm 3 mps 744 mmHg 94%
    02:00 -12°C° 0.1 mm 3 mps 744 mmHg 93%
    03:00 -13°C° 0 mm 3 mps 744 mmHg 94%
    04:00 -14°C° 0 mm 3 mps 744 mmHg 94%
    05:00 -15°C° 0 mm 3 mps 744 mmHg 94%
    06:00 -15°C° 0 mm 3 mps 745 mmHg 94%
    07:00 -15°C° 0 mm 3 mps 745 mmHg 94%
    08:00 -16°C° 0 mm 3 mps 745 mmHg 94%
    09:00 -15°C° 0 mm 3 mps 746 mmHg 93%
    10:00 -13°C° 0 mm 3 mps 746 mmHg 93%
    11:00 -12°C° 0 mm 3 mps 746 mmHg 92%
    12:00 -12°C° 0 mm 3 mps 746 mmHg 92%
    13:00 -10°C° 0 mm 3 mps 747 mmHg 93%
    14:00 -10°C° 0 mm 3 mps 747 mmHg 93%
    15:00 -12°C° 0 mm 3 mps 747 mmHg 94%
    16:00 -13°C° 0 mm 3 mps 747 mmHg 94%
    17:00 -13°C° 0 mm 3 mps 747 mmHg 95%
    18:00 -14°C° 0 mm 3 mps 747 mmHg 95%
    19:00 -14°C° 0 mm 3 mps 747 mmHg 95%
    20:00 -15°C° 0 mm 3 mps 747 mmHg 95%
    21:00 -15°C° 0 mm 3 mps 747 mmHg 94%
    22:00 -15°C° 0 mm 3 mps 747 mmHg 93%
    23:00 -15°C° 0 mm 3 mps 747 mmHg 93%

    22 January, Tuesday

    Time Temperature Precipitation Wind Pressure Humidity
    00:00 -15°C° 0 mm 3 mps 746 mmHg 93%
    01:00 -15°C° 0 mm 3 mps 746 mmHg 93%
    02:00 -15°C° 0 mm 3 mps 746 mmHg 93%
    03:00 -13°C° 0.1 mm 3 mps 745 mmHg 94%
    04:00 -12°C° 0.1 mm 3 mps 745 mmHg 95%
    05:00 -11°C° 0.1 mm 4 mps 744 mmHg 95%
    06:00 -10°C° 0.4 mm 4 mps 744 mmHg 95%
    07:00 -9°C° 0.4 mm 4 mps 744 mmHg 95%
    08:00 -7°C° 0.4 mm 5 mps 744 mmHg 94%
    09:00 -7°C° 0.2 mm 5 mps 744 mmHg 93%
    10:00 -7°C° 0.2 mm 5 mps 744 mmHg 93%
    11:00 -7°C° 0.2 mm 5 mps 744 mmHg 92%
    12:00 -7°C° 0.1 mm 5 mps 743 mmHg 92%
    13:00 -6°C° 0.1 mm 5 mps 743 mmHg 92%
    14:00 -5°C° 0.1 mm 4 mps 743 mmHg 91%
    15:00 -7°C° 0.1 mm 4 mps 743 mmHg 92%
    16:00 -6°C° 0.1 mm 3 mps 743 mmHg 93%
    17:00 -6°C° 0.1 mm 3 mps 743 mmHg 94%
    18:00 -7°C° 0 mm 3 mps 743 mmHg 95%
    19:00 -7°C° 0 mm 3 mps 743 mmHg 96%
    20:00 -8°C° 0 mm 3 mps 743 mmHg 96%
    21:00 -8°C° 0 mm 3 mps 743 mmHg 96%
    22:00 -7°C° 0 mm 3 mps 743 mmHg 97%
    23:00 -7°C° 0 mm 3 mps 744 mmHg 97%

    23 January, Wednesday

    Time Temperature Precipitation Wind Pressure Humidity
    00:00 -7°C° 0 mm 3 mps 744 mmHg 97%
    01:00 -7°C° 0 mm 3 mps 744 mmHg 97%
    02:00 -7°C° 0 mm 3 mps 744 mmHg 97%
    03:00 -8°C° 0 mm 3 mps 744 mmHg 97%
    04:00 -8°C° 0 mm 3 mps 744 mmHg 97%
    05:00 -8°C° 0 mm 3 mps 744 mmHg 97%
    06:00 -9°C° 0 mm 3 mps 744 mmHg 97%
    07:00 -10°C° 0 mm 3 mps 744 mmHg 97%
    08:00 -12°C° 0 mm 3 mps 744 mmHg 97%
    09:00 -12°C° 0 mm 3 mps 744 mmHg 96%
    10:00 -12°C° 0 mm 4 mps 744 mmHg 95%
    11:00 -12°C° 0 mm 4 mps 745 mmHg 94%
    12:00 -12°C° 0 mm 4 mps 744 mmHg 92%
    13:00 -12°C° 0 mm 4 mps 744 mmHg 91%
    14:00 -12°C° 0 mm 3 mps 744 mmHg 90%
    15:00 -13°C° 0 mm 3 mps 744 mmHg 91%
    16:00 -15°C° 0 mm 3 mps 744 mmHg 91%
    17:00 -16°C° 0 mm 3 mps 744 mmHg 92%
    18:00 -16°C° 0 mm 3 mps 744 mmHg 92%
    19:00 -16°C° 0 mm 3 mps 744 mmHg 92%
    20:00 -18°C° 0 mm 4 mps 744 mmHg 91%
    21:00 -18°C° 0 mm 4 mps 744 mmHg 90%
    22:00 -18°C° 0 mm 4 mps 744 mmHg 89%
    23:00 -18°C° 0 mm 4 mps 744 mmHg 88%

    24 January, Thursday

    Time Temperature Precipitation Wind Pressure Humidity
    00:00 -18°C° 0 mm 4 mps 744 mmHg 87%
    01:00 -18°C° 0 mm 4 mps 744 mmHg 85%
    02:00 -18°C° 0 mm 4 mps 744 mmHg 83%
    03:00 -18°C° 0 mm 4 mps 743 mmHg 83%
    04:00 -18°C° 0 mm 4 mps 743 mmHg 82%
    05:00 -19°C° 0 mm 5 mps 743 mmHg 82%
    06:00 -19°C° 0 mm 5 mps 743 mmHg 83%
    07:00 -19°C° 0 mm 5 mps 743 mmHg 84%
    08:00 -18°C° 0 mm 5 mps 743 mmHg 85%
    09:00 -18°C° 0 mm 5 mps 743 mmHg 86%
    10:00 -17°C° 0 mm 5 mps 742 mmHg 88%
    11:00 -15°C° 0 mm 5 mps 742 mmHg 89%
    12:00 -14°C° 0 mm 5 mps 742 mmHg 91%
    13:00 -13°C° 0 mm 5 mps 742 mmHg 92%
    14:00 -12°C° 0 mm 5 mps 741 mmHg 94%
    15:00 -12°C° 0.1 mm 5 mps 741 mmHg 94%
    16:00 -12°C° 0.1 mm 5 mps 741 mmHg 94%
    17:00 -11°C° 0.1 mm 5 mps 741 mmHg 94%
    18:00 -11°C° 0 mm 5 mps 741 mmHg 94%
    19:00 -11°C° 0 mm 5 mps 741 mmHg 94%
    20:00 -11°C° 0 mm 5 mps 741 mmHg 94%
    21:00 -11°C° 0 mm 5 mps 740 mmHg 94%
    22:00 -10°C° 0 mm 5 mps 740 mmHg 94%
    23:00 -10°C° 0 mm 5 mps 740 mmHg 94%
    Show more